TimeEDT,TemperatureF,Dew PointF,Humidity,Sea Level PressureIn,VisibilityMPH,Wind Direction,Wind SpeedMPH,Gust SpeedMPH,PrecipitationIn,Events,Conditions,WindDirDegrees,DateUTC
12:53 AM,53.1,51.1,93,30.14,8.0,Calm,Calm,-,N/A,,Clear,0,2012-10-23 04:53:00
1:53 AM,50.0,48.9,96,30.13,9.0,Calm,Calm,-,N/A,,Clear,0,2012-10-23 05:53:00
2:53 AM,50.0,48.2,94,30.14,10.0,Calm,Calm,-,N/A,,Clear,0,2012-10-23 06:53:00
3:53 AM,48.9,48.0,97,30.12,10.0,Calm,Calm,-,N/A,,Clear,0,2012-10-23 07:53:00
4:53 AM,46.9,46.0,97,30.11,10.0,Calm,Calm,-,N/A,,Clear,0,2012-10-23 08:53:00
6:53 AM,46.9,45.0,93,30.15,10.0,Calm,Calm,-,N/A,,Clear,0,2012-10-23 10:53:00
7:53 AM,46.0,45.0,96,30.18,8.0,Calm,Calm,-,N/A,,Clear,0,2012-10-23 11:53:00
8:53 AM,46.9,46.0,97,30.19,10.0,Calm,Calm,-,N/A,,Clear,0,2012-10-23 12:53:00
9:53 AM,55.0,53.1,93,30.20,7.0,Calm,Calm,-,N/A,,Clear,0,2012-10-23 13:53:00
10:53 AM,63.0,54.0,72,30.19,10.0,Calm,Calm,-,N/A,,Clear,0,2012-10-23 14:53:00
11:53 AM,69.1,53.1,57,30.19,10.0,Calm,Calm,-,N/A,,Clear,0,2012-10-23 15:53:00
12:53 PM,73.0,52.0,48,30.16,10.0,SW,3.5,-,N/A,,Clear,230,2012-10-23 16:53:00
1:53 PM,75.0,52.0,44,30.13,10.0,Calm,Calm,-,N/A,,Clear,0,2012-10-23 17:53:00
2:53 PM,77.0,52.0,42,30.11,10.0,Variable,3.5,-,N/A,,Clear,0,2012-10-23 18:53:00
3:53 PM,79.0,52.0,39,30.09,10.0,Calm,Calm,-,N/A,,Clear,0,2012-10-23 19:53:00
4:53 PM,79.0,52.0,39,30.09,10.0,Calm,Calm,-,N/A,,Clear,0,2012-10-23 20:53:00
5:53 PM,78.1,52.0,40,30.08,10.0,Calm,Calm,-,N/A,,Clear,0,2012-10-23 21:53:00
6:53 PM,68.0,55.0,63,30.08,10.0,Calm,Calm,-,N/A,,Clear,0,2012-10-23 22:53:00
7:53 PM,62.1,55.9,80,30.09,10.0,Calm,Calm,-,N/A,,Clear,0,2012-10-23 23:53:00
8:53 PM,60.1,55.9,86,30.09,10.0,Calm,Calm,-,N/A,,Clear,0,2012-10-24 00:53:00
9:53 PM,57.9,55.0,90,30.10,10.0,Calm,Calm,-,N/A,,Clear,0,2012-10-24 01:53:00
10:53 PM,57.0,55.0,93,30.11,10.0,Calm,Calm,-,N/A,,Clear,0,2012-10-24 02:53:00
11:53 PM,54.0,52.0,93,30.11,10.0,Calm,Calm,-,N/A,,Clear,0,2012-10-24 03:53:00